Regional Weather Roundup
Issued by NWS

Home | Current Version | Previous Version | Text Only | Print | Product List | Glossary Off
Versions: 1 2 3 4 5 6 7 8 9 10 11 12 13 14 15 16 17 18 19 20 21 22 23 24 25 26 27

000
ASUS45 KCYS 251510
RWRWY

WYOMING REGIONAL WEATHER ROUNDUP
NATIONAL WEATHER SERVICE CHEYENNE WY
900 AM MDT THU MAY 25 2017

NOTE:  "FAIR" INDICATES FEW OR NO CLOUDS BELOW 12,000 FEET
WITH NO SIGNIFICANT WEATHER AND/OR OBSTRUCTIONS TO VISIBILITY.

WYZ001-251600-
YELLOWSTONE NATIONAL PARK

CITY           SKY/WX    TMP DP  RH WIND       PRES   REMARKS
LK YELLOWSTONE   N/A     34  16  47 NW5       29.78R WCI  30
W YELLOWSTONE  NOT AVBL

$$
WYZ002>013-054>058-071-098>099-251600-
NORTHERN WYOMING

CITY           SKY/WX    TMP DP  RH WIND       PRES   REMARKS
JACKSON        SUNNY     46  18  31 SE5       29.73S
CODY           FAIR      51  24  34 NE8       29.65R
GREYBULL       FAIR      57  19  22 N16G22    29.60S
WORLAND        FAIR      54  23  30 NW12      29.62R
SHERIDAN       FAIR      55  30  38 N10       29.59R
BUFFALO        FAIR      53  23  31 N13       29.60S
GILLETTE       FAIR      53  29  39 NW13      29.58R
HULETT         CLOUDY    54  28  37 W7        29.58S
NEWCASTLE      FAIR      54  25  32 N13G20    29.56F

$$
WYZ014>020-022>026-101>103-251600-
CENTRAL WYOMING

CITY           SKY/WX    TMP DP  RH WIND       PRES   REMARKS
BIG PINEY      FAIR      45  26  47 W9        29.74S
PINEDALE       FAIR      45  23  42 W12       29.74S
DUBOIS         FAIR      45  14  29 NW16G23   29.69R
LANDER         FAIR      49  30  48 E5        29.64R
RIVERTON       FAIR      52  24  33 NE7       29.64R
CASPER         PTSUNNY   50  43  77 NE8       29.61R
DOUGLAS        CLOUDY    51  45  79 CALM      29.61R

$$
WYZ021-027>030-104>119-251600-
SOUTHERN WYOMING

CITY           SKY/WX    TMP DP  RH WIND       PRES   REMARKS
EVANSTON       PTSUNNY   45  38  76 SW16      29.77S
KEMMERER         N/A     43  34  70 W15       29.76S
FORT BRIDGER   CLOUDY    47  39  73 W14       29.79S
ROCK SPRINGS   CLOUDY    44  37  76 W17       29.75R
DIXON          DRIZZLE   46  37  70 NW8       29.81S
RAWLINS        CLOUDY    46  35  65 SW20G26   29.72F
LARAMIE        PTSUNNY   50  40  68 MISG      29.70R
CHEYENNE       FAIR      62  46  55 W7        29.63S
TORRINGTON     FAIR      60  40  47 NW6       29.56R
PINE BLUFFS    FAIR      63  46  55 NE8       29.61R

$$




USA.gov is the U.S. government's official web portal to all federal, state and local government web resources and services.